| time (UTC) | temp F | wind direction | speed MPH | gust MPH | rain 1hr in | rain 24hr in | rain mn in | humidity % | barometer mb |
| 20260509103022 | 53 | 259 | 4.0 | 9.0 | 0.00 | 0.00 | 0.00 | 74 | 999.3 |
| 20260509102020 | 53 | 260 | 3.0 | 7.0 | 0.00 | 0.00 | 0.00 | 74 | 999.3 |
| 20260509101038 | 53 | 265 | 3.0 | 10.0 | 0.00 | 0.00 | 0.00 | 75 | 999.3 |
| 20260509100033 | 52 | 262 | 2.0 | 6.0 | 0.00 | 0.00 | 0.00 | 75 | 999.3 |
| 20260509095029 | 52 | 261 | 2.0 | 6.0 | 0.00 | 0.00 | 0.00 | 75 | 999.3 |
| 20260509094025 | 52 | 260 | 3.0 | 7.0 | 0.00 | 0.00 | 0.00 | 75 | 999.5 |
| 20260509093022 | 51 | 258 | 3.0 | 6.0 | 0.00 | 0.00 | 0.00 | 76 | 999.7 |
| 20260509092018 | 50 | 246 | 2.0 | 7.0 | 0.00 | 0.00 | 0.00 | 76 | 999.7 |
| 20260509091035 | 50 | 229 | 2.0 | 6.0 | 0.00 | 0.00 | 0.00 | 76 | 999.7 |
| 20260509090031 | 49 | 203 | 1.0 | 4.0 | 0.00 | 0.00 | 0.00 | 76 | 999.7 |
| 20260509085028 | 50 | 213 | 2.0 | 6.0 | 0.00 | 0.00 | 0.00 | 76 | 999.7 |
| 20260509084026 | 50 | 226 | 2.0 | 6.0 | 0.00 | 0.00 | 0.00 | 76 | 999.7 |
| 20260509083020 | 50 | 215 | 1.0 | 4.0 | 0.00 | 0.00 | 0.00 | 76 | 999.7 |
| 20260509082017 | 50 | 200 | 2.0 | 8.0 | 0.00 | 0.00 | 0.00 | 75 | 999.8 |
| 20260509081034 | 50 | 184 | 2.0 | 4.0 | 0.00 | 0.00 | 0.00 | 75 | 999.7 |
| 20260509080152 | 50 | 184 | 2.0 | 7.0 | 0.00 | 0.00 | 0.00 | 74 | 999.8 |
| 20260509075027 | 50 | 190 | 2.0 | 4.0 | 0.00 | 0.00 | 0.00 | 74 | 999.9 |
| 20260509074023 | 51 | 221 | 2.0 | 4.0 | 0.00 | 0.00 | 0.00 | 73 | 1000.0 |
| 20260509073019 | 51 | 205 | 3.0 | 6.0 | 0.00 | 0.00 | 0.00 | 73 | 1000.1 |
| 20260509072035 | 51 | 223 | 3.0 | 9.0 | 0.00 | 0.00 | 0.00 | 74 | 1000.3 |
| 20260509071030 | 49 | 223 | 2.0 | 6.0 | 0.00 | 0.00 | 0.00 | 77 | 1000.6 |
| 20260509070025 | 49 | 179 | 2.0 | 9.0 | 0.00 | 0.00 | 0.00 | 77 | 1000.7 |
| 20260509065019 | 51 | 175 | 2.0 | 6.0 | 0.00 | 0.00 | 0.00 | 73 | 1000.8 |
| 20260509064036 | 51 | 195 | 3.0 | 8.0 | 0.00 | 0.00 | 0.00 | 73 | 1001.1 |
| 20260509063030 | 50 | 203 | 2.0 | 6.0 | 0.00 | 0.00 | 0.00 | 74 | 1001.4 |
| 20260509062026 | 50 | 196 | 3.0 | 7.0 | 0.00 | 0.00 | 0.00 | 76 | 1001.5 |
| 20260509061043 | 49 | 200 | 2.0 | 6.0 | 0.00 | 0.00 | 0.00 | 77 | 1001.8 |
| 20260509060039 | 49 | 202 | 2.0 | 7.0 | 0.00 | 0.00 | 0.00 | 78 | 1001.9 |
| 20260509055056 | 48 | 202 | 2.0 | 7.0 | 0.00 | 0.00 | 0.00 | 78 | 1002.1 |
| 20260509054051 | 47 | 189 | 2.0 | 7.0 | 0.00 | 0.00 | 0.00 | 80 | 1002.4 |
| 20260509053028 | 46 | 208 | 0.0 | 2.0 | 0.00 | 0.00 | 0.00 | 83 | 1002.7 |
| 20260509052024 | 46 | 131 | 1.0 | 4.0 | 0.00 | 0.00 | 0.00 | 83 | 1002.5 |
| 20260509051021 | 47 | 156 | 2.0 | 4.0 | 0.00 | 0.00 | 0.00 | 81 | 1002.7 |
| 20260509050018 | 48 | 137 | 2.0 | 7.0 | 0.00 | 0.00 | 0.00 | 78 | 1002.8 |
| 20260509045034 | 50 | 132 | 2.0 | 4.0 | 0.00 | 0.00 | 0.00 | 73 | 1003.0 |
| 20260509044031 | 51 | 186 | 1.0 | 9.0 | 0.00 | 0.00 | 0.00 | 69 | 1003.3 |
| 20260509043029 | 51 | 189 | 1.0 | 6.0 | 0.00 | 0.00 | 0.00 | 68 | 1003.4 |
| 20260509042024 | 52 | 193 | 3.0 | 8.0 | 0.00 | 0.00 | 0.00 | 67 | 1003.4 |
| 20260509041021 | 52 | 201 | 3.0 | 10.0 | 0.00 | 0.00 | 0.00 | 67 | 1003.5 |
| 20260509040017 | 53 | 204 | 4.0 | 11.0 | 0.00 | 0.00 | 0.00 | 68 | 1003.6 |
| 20260509035054 | 53 | 212 | 4.0 | 13.0 | 0.00 | 0.00 | 0.00 | 68 | 1003.6 |
| 20260509034031 | 53 | 212 | 4.0 | 10.0 | 0.00 | 0.00 | 0.00 | 67 | 1003.7 |
| 20260509033027 | 52 | 194 | 4.0 | 13.0 | 0.00 | 0.00 | 0.00 | 68 | 1003.8 |
| 20260509032024 | 52 | 196 | 5.0 | 14.0 | 0.00 | 0.00 | 0.00 | 69 | 1003.9 |
| 20260509031021 | 52 | 216 | 4.0 | 11.0 | 0.00 | 0.00 | 0.00 | 69 | 1004.1 |
| 20260509030017 | 52 | 195 | 3.0 | 9.0 | 0.00 | 0.00 | 0.00 | 69 | 1004.3 |
| 20260509025036 | 52 | 208 | 3.0 | 9.0 | 0.00 | 0.00 | 0.00 | 68 | 1004.5 |
| 20260509024031 | 52 | 226 | 4.0 | 21.0 | 0.00 | 0.00 | 0.00 | 66 | 1004.5 |
| 20260509023028 | 52 | 217 | 4.0 | 10.0 | 0.00 | 0.00 | 0.00 | 66 | 1004.5 |
| 20260509022025 | 52 | 221 | 4.0 | 9.0 | 0.00 | 0.00 | 0.00 | 65 | 1004.5 |
| 20260509021021 | 52 | 212 | 5.0 | 16.0 | 0.00 | 0.00 | 0.00 | 64 | 1004.5 |
| 20260509020019 | 52 | 213 | 5.0 | 14.0 | 0.00 | 0.00 | 0.00 | 63 | 1004.4 |
| 20260509015034 | 51 | 211 | 4.0 | 14.0 | 0.00 | 0.00 | 0.00 | 61 | 1004.2 |
| 20260509014032 | 51 | 205 | 5.0 | 14.0 | 0.00 | 0.00 | 0.00 | 59 | 1004.0 |
| 20260509013028 | 51 | 185 | 4.0 | 11.0 | 0.00 | 0.00 | 0.00 | 53 | 1004.2 |
| 20260509012024 | 51 | 202 | 4.0 | 13.0 | 0.00 | 0.00 | 0.00 | 50 | 1004.2 |
| 20260509011041 | 51 | 195 | 5.0 | 16.0 | 0.00 | 0.00 | 0.00 | 46 | 1004.2 |
| 20260509010018 | 52 | 200 | 4.0 | 17.0 | 0.00 | 0.00 | 0.00 | 43 | 1004.2 |
| 20260509005036 | 52 | 208 | 5.0 | 14.0 | 0.00 | 0.00 | 0.00 | 41 | 1004.1 |
| 20260509004032 | 52 | 201 | 6.0 | 16.0 | 0.00 | 0.00 | 0.00 | 40 | 1004.3 |
| 20260509003028 | 53 | 201 | 4.0 | 14.0 | 0.00 | 0.00 | 0.00 | 40 | 1004.4 |
| 20260509002045 | 53 | 188 | 4.0 | 14.0 | 0.00 | 0.00 | 0.00 | 37 | 1004.5 |
| 20260509001021 | 54 | 200 | 6.0 | 15.0 | 0.00 | 0.00 | 0.00 | 36 | 1004.4 |
| 20260509000018 | 54 | 197 | 6.0 | 17.0 | 0.00 | 0.00 | 0.00 | 36 | 1004.3 |
| 20260508235035 | 55 | 196 | 6.0 | 16.0 | 0.00 | 0.00 | 0.00 | 34 | 1004.5 |
| 20260508234113 | 56 | 192 | 5.0 | 17.0 | 0.00 | 0.00 | 0.00 | 33 | 1004.6 |
| 20260508233028 | 56 | 186 | 5.0 | 13.0 | 0.00 | 0.00 | 0.00 | 32 | 1004.6 |
| 20260508232025 | 56 | 200 | 5.0 | 15.0 | 0.00 | 0.00 | 0.00 | 34 | 1004.7 |
| 20260508231041 | 57 | 192 | 4.0 | 10.0 | 0.00 | 0.00 | 0.00 | 34 | 1004.9 |
| 20260508230018 | 58 | 192 | 5.0 | 10.0 | 0.00 | 0.00 | 0.00 | 33 | 1004.9 |
| 20260508225035 | 59 | 185 | 6.0 | 13.0 | 0.00 | 0.00 | 0.00 | 32 | 1005.0 |
| 20260508224031 | 59 | 177 | 5.0 | 14.0 | 0.00 | 0.00 | 0.00 | 33 | 1005.1 |
| 20260508223028 | 59 | 175 | 4.0 | 11.0 | 0.00 | 0.00 | 0.00 | 33 | 1005.2 |
| 20260508222045 | 59 | 189 | 5.0 | 15.0 | 0.00 | 0.00 | 0.00 | 32 | 1005.2 |
| 20260508221022 | 58 | 176 | 5.0 | 17.0 | 0.00 | 0.00 | 0.00 | 35 | 1005.3 |
| 20260508220018 | 58 | 183 | 5.0 | 14.0 | 0.00 | 0.00 | 0.00 | 34 | 1005.4 |
| 20260508215036 | 59 | 191 | 6.0 | 18.0 | 0.00 | 0.00 | 0.00 | 33 | 1005.4 |
| 20260508214033 | 58 | 160 | 5.0 | 13.0 | 0.00 | 0.00 | 0.00 | 36 | 1005.5 |
| 20260508213028 | 57 | 196 | 5.0 | 16.0 | 0.00 | 0.00 | 0.00 | 40 | 1005.6 |
| 20260508212045 | 57 | 153 | 4.0 | 10.0 | 0.00 | 0.00 | 0.00 | 42 | 1005.6 |
| 20260508211023 | 56 | 159 | 4.0 | 11.0 | 0.00 | 0.00 | 0.00 | 48 | 1005.6 |
| 20260508210018 | 57 | 140 | 5.0 | 11.0 | 0.00 | 0.00 | 0.00 | 43 | 1005.9 |
| 20260508205035 | 56 | 177 | 5.0 | 13.0 | 0.00 | 0.00 | 0.00 | 44 | 1006.0 |
| 20260508204030 | 55 | 174 | 5.0 | 14.0 | 0.00 | 0.00 | 0.00 | 44 | 1006.3 |
| 20260508203027 | 57 | 160 | 5.0 | 15.0 | 0.00 | 0.00 | 0.00 | 42 | 1006.3 |
| 20260508202023 | 57 | 175 | 5.0 | 14.0 | 0.00 | 0.00 | 0.00 | 45 | 1006.5 |
| 20260508201020 | 57 | 148 | 4.0 | 14.0 | 0.00 | 0.00 | 0.00 | 45 | 1006.6 |
| 20260508200017 | 58 | 168 | 5.0 | 14.0 | 0.00 | 0.00 | 0.00 | 47 | 1006.6 |
| 20260508195033 | 58 | 168 | 5.0 | 13.0 | 0.00 | 0.00 | 0.00 | 43 | 1006.8 |
| 20260508194030 | 56 | 178 | 5.0 | 13.0 | 0.00 | 0.00 | 0.00 | 51 | 1007.0 |
| 20260508193026 | 59 | 151 | 5.0 | 15.0 | 0.00 | 0.00 | 0.00 | 46 | 1007.2 |
| 20260508192023 | 58 | 185 | 5.0 | 14.0 | 0.00 | 0.00 | 0.00 | 47 | 1007.2 |
| 20260508191020 | 57 | 146 | 5.0 | 13.0 | 0.00 | 0.00 | 0.00 | 48 | 1007.3 |
| 20260508190016 | 58 | 164 | 5.0 | 13.0 | 0.00 | 0.00 | 0.00 | 44 | 1007.3 |
| 20260508185033 | 59 | 156 | 5.0 | 13.0 | 0.00 | 0.00 | 0.00 | 43 | 1007.3 |
| 20260508184031 | 59 | 156 | 5.0 | 16.0 | 0.00 | 0.00 | 0.00 | 42 | 1007.4 |
| 20260508183026 | 59 | 140 | 5.0 | 16.0 | 0.00 | 0.00 | 0.00 | 41 | 1007.5 |
| 20260508182023 | 59 | 150 | 5.0 | 11.0 | 0.00 | 0.00 | 0.00 | 42 | 1007.7 |
| 20260508181020 | 59 | 146 | 5.0 | 11.0 | 0.00 | 0.00 | 0.00 | 43 | 1007.7 |
| 20260508180018 | 57 | 161 | 5.0 | 14.0 | 0.00 | 0.00 | 0.00 | 46 | 1008.0 |
| 20260508175033 | 58 | 142 | 5.0 | 13.0 | 0.00 | 0.00 | 0.00 | 49 | 1008.2 |
| 20260508174030 | 60 | 163 | 6.0 | 13.0 | 0.00 | 0.00 | 0.00 | 44 | 1008.3 |
| 20260508173027 | 60 | 176 | 5.0 | 13.0 | 0.00 | 0.00 | 0.00 | 40 | 1008.4 |
| 20260508172023 | 61 | 161 | 5.0 | 13.0 | 0.00 | 0.00 | 0.00 | 41 | 1008.6 |
| 20260508171020 | 61 | 166 | 5.0 | 14.0 | 0.00 | 0.00 | 0.00 | 38 | 1008.7 |
| 20260508170017 | 59 | 179 | 4.0 | 10.0 | 0.00 | 0.00 | 0.00 | 45 | 1008.9 |
| 20260508165033 | 58 | 156 | 4.0 | 11.0 | 0.00 | 0.00 | 0.00 | 48 | 1009.0 |
| 20260508164030 | 58 | 154 | 5.0 | 11.0 | 0.00 | 0.00 | 0.00 | 49 | 1009.1 |
| 20260508163028 | 58 | 148 | 5.0 | 14.0 | 0.00 | 0.00 | 0.00 | 49 | 1009.1 |
| 20260508162046 | 57 | 172 | 5.0 | 13.0 | 0.00 | 0.00 | 0.00 | 52 | 1009.1 |
| 20260508161021 | 57 | 154 | 4.0 | 13.0 | 0.00 | 0.00 | 0.00 | 54 | 1009.3 |
| 20260508160017 | 57 | 172 | 4.0 | 11.0 | 0.00 | 0.00 | 0.00 | 55 | 1009.3 |
| 20260508155054 | 56 | 158 | 4.0 | 13.0 | 0.00 | 0.00 | 0.00 | 55 | 1009.4 |
| 20260508154050 | 56 | 162 | 4.0 | 13.0 | 0.00 | 0.00 | 0.00 | 55 | 1009.4 |
| 20260508153027 | 57 | 161 | 4.0 | 13.0 | 0.00 | 0.00 | 0.00 | 56 | 1009.4 |
| 20260508152024 | 58 | 170 | 4.0 | 13.0 | 0.00 | 0.00 | 0.00 | 52 | 1009.5 |
| 20260508151020 | 57 | 161 | 3.0 | 7.0 | 0.00 | 0.00 | 0.00 | 54 | 1009.6 |
| 20260508150037 | 57 | 141 | 4.0 | 9.0 | 0.00 | 0.00 | 0.00 | 55 | 1009.7 |
| 20260508145034 | 58 | 143 | 4.0 | 8.0 | 0.00 | 0.00 | 0.00 | 52 | 1009.6 |
| 20260508144030 | 59 | 137 | 3.0 | 7.0 | 0.00 | 0.00 | 0.00 | 49 | 1009.7 |
| 20260508143047 | 60 | 150 | 2.0 | 8.0 | 0.00 | 0.00 | 0.00 | 45 | 1009.8 |
| 20260508142024 | 60 | 216 | 3.0 | 7.0 | 0.00 | 0.00 | 0.00 | 37 | 1010.0 |
| 20260508141042 | 60 | 208 | 3.0 | 8.0 | 0.00 | 0.00 | 0.00 | 39 | 1010.0 |
| 20260508140017 | 59 | 234 | 4.0 | 10.0 | 0.00 | 0.00 | 0.00 | 40 | 1009.9 |
| 20260508135034 | 58 | 223 | 3.0 | 9.0 | 0.00 | 0.00 | 0.00 | 41 | 1010.0 |
| 20260508134030 | 57 | 205 | 4.0 | 9.0 | 0.00 | 0.00 | 0.00 | 41 | 1010.0 |
| 20260508133027 | 56 | 231 | 3.0 | 9.0 | 0.00 | 0.00 | 0.00 | 45 | 1010.0 |
| 20260508132025 | 55 | 248 | 4.0 | 8.0 | 0.00 | 0.00 | 0.00 | 48 | 1010.0 |
| 20260508131040 | 54 | 228 | 3.0 | 8.0 | 0.00 | 0.00 | 0.00 | 51 | 1010.0 |
| 20260508130017 | 53 | 237 | 3.0 | 7.0 | 0.00 | 0.00 | 0.00 | 53 | 1010.1 |
| 20260508125054 | 52 | 238 | 3.0 | 8.0 | 0.00 | 0.00 | 0.00 | 55 | 1010.2 |
| 20260508124030 | 51 | 240 | 3.0 | 8.0 | 0.00 | 0.00 | 0.00 | 56 | 1010.3 |
| 20260508123026 | 49 | 239 | 3.0 | 6.0 | 0.00 | 0.00 | 0.00 | 58 | 1010.1 |
| 20260508122023 | 48 | 241 | 2.0 | 7.0 | 0.00 | 0.00 | 0.00 | 60 | 1010.1 |
| 20260508121020 | 46 | 242 | 3.0 | 8.0 | 0.00 | 0.00 | 0.00 | 64 | 1010.1 |
| 20260508120016 | 43 | 257 | 3.0 | 7.0 | 0.00 | 0.00 | 0.00 | 69 | 1010.1 |
| 20260508115053 | 42 | 250 | 2.0 | 6.0 | 0.00 | 0.00 | 0.00 | 70 | 1010.1 |
| 20260508114030 | 42 | 265 | 2.0 | 6.0 | 0.00 | 0.00 | 0.00 | 71 | 1010.0 |
| 20260508113028 | 41 | 263 | 2.0 | 4.0 | 0.00 | 0.00 | 0.00 | 72 | 1010.0 |
| 20260508112024 | 40 | 258 | 2.0 | 7.0 | 0.00 | 0.00 | 0.00 | 73 | 1010.0 |
| 20260508111039 | 40 | 257 | 2.0 | 4.0 | 0.00 | 0.00 | 0.00 | 75 | 1010.1 |
| 20260508110016 | 39 | 265 | 2.0 | 4.0 | 0.00 | 0.00 | 0.00 | 75 | 1010.0 |
| 20260508105032 | 39 | 265 | 2.0 | 4.0 | 0.00 | 0.00 | 0.00 | 75 | 1010.0 |
| 20260508104029 | 38 | 267 | 2.0 | 3.0 | 0.00 | 0.00 | 0.00 | 76 | 1009.9 |